Location: Ferques
(50.8300°N, 1.7599°E)
Time: 15:27:49
(UTC+00:00)

Terra - Pass Details

Date: 19 May 2025
Orbit: 690 x 691 km, 98.0° (Epoch: 18 June)

Event Time Altitude Azimuth Distance (km) Brightness Sun altitude
Exits shadow 20:50:07 - 175° (S) 2,543 4.2 -9.0°
Reaches altitude 10° 20:51:07 10° 177° (S) 2,139 3.9 -9.1°
Maximum altitude 20:55:46 63° 259° (WSW) 773 2.2 -9.6°
Drops below altitude 10° 21:00:27 10° 340° (NNW) 2,155 5.6 -10.1°
Sets 21:02:44 0° 344° (NNW) 3,077 6.5 -10.3°
